Regional Weather Roundup
Issued by NWS

Home | Current Version | Previous Version | Text Only | Print | Product List | Glossary On
Versions: 1 2 3 4 5 6 7 8 9 10 11 12 13 14 15 16 17 18 19 20 21 22 23 24 25 26 27 28 29 30 31 32 33 34 35 36 37 38 39 40 41 42 43 44 45 46 47 48 49 50
000
ASUS42 KTBW 291717
RWRFL
FLORIDA REGIONAL WEATHER ROUNDUP
NATIONAL WEATHER SERVICE TAMPA BAY RUSKIN FL
100 PM EDT WED JUL 29 2015

NOTE: "FAIR" INDICATES FEW OR NO CLOUDS BELOW 12,000 FEET WITH NO
SIGNIFICANT WEATHER AND/OR OBSTRUCTIONS TO VISIBILITY.


FLZ001>010-012>015-112-114-115-291800-
PANHANDLE FLORIDA

CITY           SKY/WX    TMP DP  RH WIND       PRES   REMARKS
PENSACOLA      SUNNY     94  75  54 NW10      29.99F HX 105
PENSACOLA NAS  PTSUNNY   95  75  52 NW8       29.99S HX 107
MILTON NAS     MOSUNNY   95  76  53 VRB6      29.99  HX 108
CRESTVIEW      SUNNY     96  77  54 MISG      30.00F HX 111
DUKE FIELD     PTSUNNY   96  75  50 N9        29.99F HX 107
VALPARAISO     PTSUNNY   96  75  50 N9        29.98F HX 107
MARY ESTHER    MOSUNNY   95  73  48 NE8       29.97  HX 104
TRI COUNTY     FAIR      95  75  52 N6        29.99F HX 107
PANAMA CITY    FAIR      95  75  52 NW10      29.98S HX 107
TYNDALL AFB    SUNNY     95  75  52 N8        29.98S HX 107
APALACHICOLA   SUNNY     97  76  50 N9        29.97F HX 110

STATION/POSITION SKY/WX   TEMP    WIND        PRES    WAVE   SWELL
                          AIR SEA DIR/SP/G            HT/PER HT/PER
                          (F)     (DEG/KT/KT) (MB)    (FT/S) (FT/S)
30.1N   87.6W              85 85  290/ 10/ 12 1015.3F   1/ 4
29.2N   88.2W              86 89  330/ 10/ 10 1016.8F   2/ 3
28.8N   86.0W              87 87  340/ 14/ 16 1016.4    2/ 4
PANAMA CITY BEAC           87 83  200/  6/  7 1015.4F
CAPE SAN BLAS    NOT AVBL
TOWER C                    85     290/  9/  9 1015.0F
28.5N   84.5W              87 86  310/  8/ 10 1015.5F   2/ 4   2/ 9

$$
FLZ011-016>038-118-127-128-134-139-239-291800-
NORTH FLORIDA

CITY           SKY/WX    TMP DP  RH WIND       PRES   REMARKS
MARIANNA       SUNNY     95  74  50 N8        29.98F HX 105
TALLAHASSEE    PTSUNNY   94  76  55 N9        29.97F HX 106
PERRY          MOSUNNY   94  76  57 W5        29.97F HX 107
CROSS CITY       N/A     92  79  65 CALM      29.96F HX 108
LAKE CITY      FAIR      91  77  62 N3        29.97F HX 105
GAINESVILLE    SUNNY     93  75  55 N9        29.96F HX 104
MAYPORT NAS    PTSUNNY   88  77  69 NE13      29.97F HX 100
JACKSONVILLE   PTSUNNY   91  74  57 N8        29.96  HX 100
JAX NAS        MOSUNNY   95  72  47 N9        29.97F HX 103
JAX CRAIG      MOSUNNY   91  75  59 NE8       29.97F HX 101
JAX CECIL      MOSUNNY   91  75  59 N6        29.97F HX 102
FERNANDINA BEA FAIR      90  77  66 NE9       29.96F HX 102
ST AUGUSTINE   MOSUNNY   86  77  74 NE13      29.98S HX  97

STATION/POSITION SKY/WX   TEMP    WIND        PRES    WAVE   SWELL
                          AIR SEA DIR/SP/G            HT/PER HT/PER
                          (F)     (DEG/KT/KT) (MB)    (FT/S) (FT/S)
SHELL POINT                91     330/  7/ 11   N/A
KEATON BEACH               87     270/  7/  8 1014.7F
CEDAR KEY                  83      80/  6/  6 1015.4F
FERNANDINA                 85 85   40/  5/  9 1014.8F
30.7N   81.3W                 83                N/A     2/11
MAYPORT                    85 83   30/  9/ 12 1015.5F
31.4N   80.9W              82 83   30/ 10/ 12 1015.2F   2/ 7   2/ 7
ST AUGUSTINE               81 82   20/ 14/ 15 1015.7F

$$
FLZ040-043>046-052-053-057-058-063-144-291800-
INTERIOR CENTRAL FLORIDA

CITY           SKY/WX    TMP DP  RH WIND       PRES   REMARKS
OCALA          PTSUNNY   93  75  55 N9        29.97F HX 104
THE VILLAGES     N/A     91 N/A N/A NW5       29.87F
LEESBURG       MOSUNNY  N/A N/A N/A NW5       29.98F
SANFORD        MOSUNNY   90  75  61 NW8       29.97F HX 100
ORLANDO EXEC   MOSUNNY   89  77  67 MISG      29.97F HX 101
ORLANDO INTL   PTSUNNY   89  78  70 VRB7      29.97F HX 103
KISSIMMEE      PTSUNNY   90  79  70 W7        29.98F HX 105
WINTER HAVEN   PTSUNNY   92  77  61 W7        29.99F HX 105
LAKELAND       MOSUNNY   90  75  62 CALM      29.99F HX 100
BARTOW         PTSUNNY   88  73  62 NW5       30.00F HX  96
OKEECHOBEE     TSTM      73  73 100 SW14      30.03S

$$
FLZ041-047-054-059-064-141-147-291800-
EAST CENTRAL FLORIDA

CITY           SKY/WX    TMP DP  RH WIND       PRES   REMARKS
ORMOND BEACH   MOSUNNY   86  75  70 NE9       29.97S HX  95
DAYTONA BEACH  MOSUNNY   90  75  61 VRB6      29.97S HX 100
DELAND           N/A     90  73  58 N3        29.97F HX  98
NEW SMYRNA BEA MOSUNNY   86  75  70 NE12      29.99R HX  95
JFK SPACE CTR  CLOUDY    83  76  79 S2        29.97S
TITUSVILLE     PTSUNNY   84  75  74 W7        29.99S
CAPE CANAVERAL CLOUDY    85  76  75 W6        29.97S
PATRICK AFB    CLOUDY    87  77  72 W5        29.97S HX  98
MELBOURNE      CLOUDY    87  76  69 W6        29.98S HX  97
VERO BEACH     CLOUDY    88  75  65 NW8       30.00R HX  97
FT PIERCE      CLOUDY    83  78  85 W8        30.01R
STUART         PTSUNNY   84  73  70 W12       30.01S

STATION/POSITION SKY/WX   TEMP    WIND        PRES    WAVE   SWELL
                          AIR SEA DIR/SP/G            HT/PER HT/PER
                          (F)     (DEG/KT/KT) (MB)    (FT/S) (FT/S)
28.5N   80.2W              80 81  260/ 10/ 12 1015.6R
28.9N   78.5W              80 84  230/ 16/ 19 1014.0F
TRIDENT PIER               82 77  240/  8/ 11 1015.7F
28.4N   80.5W                 79                N/A     1/11
27.5N   80.2W                 77                N/A     1/12

$$
FLZ050-056-061-142-242-148-248-149-249-151-251-155-255-
160-260-291800-
WEST CENTRAL FLORIDA

CITY           SKY/WX    TMP DP  RH WIND       PRES   REMARKS
CRYSTAL RIVER  FAIR      90  81  74 W10       29.96F HX 108
INVERNESS      LGT RAIN  84  81  89 CALM      29.98S HX  98
BROOKSVILLE    PTSUNNY   81  74  79 S5        29.99F HAZE
ZEPHYRHILLS    FAIR      90  70  51 CALM      29.98F HX  95
CLEARWATER     CLOUDY    83  74  74 S12       30.00S
TAMPA INTL     PTSUNNY   84  77  79 W14       30.02R THUNDER
TAMPA EXEC     PTSUNNY   91  79  66 SW10G18   29.99F HX 107
PLANT CITY     MOSUNNY   91  79  66 W6        30.01S HX 107
MACDILL AFB    MOSUNNY   86  79  79 SW14      29.98F HX 101
PETER O KNIGHT LGT RAIN  88  81  79 SW14      29.98F HX 105
ST PETERSBURG  PTSUNNY   82  72  71 W14       29.97F
SARASOTA       PTSUNNY   85  75  72 SW14      30.00F
VENICE         FAIR      82  75  78 SW10      30.04S

STATION/POSITION SKY/WX   TEMP    WIND        PRES    WAVE   SWELL
                          AIR SEA DIR/SP/G            HT/PER HT/PER
                          (F)     (DEG/KT/KT) (MB)    (FT/S) (FT/S)
CEDAR KEY                  83      80/  6/  6 1015.4F
28.5N   84.5W              87 86  310/  8/ 10 1015.5F   2/ 4   2/ 9
27.3N   84.2W                 84                N/A     2/ 4
CLEARWATER BEACH           84 84  230/  7/  8 1016.2F
MIDDLE TAMPA BAY           82     270/ 10/ 12 1016.8R
VENICE                     80 85  230/  8/  9 1016.4F

$$
FLZ066-069-070-075>078-162-262-165-265-291800-
SOUTHWEST FLORIDA AND KEYS

CITY           SKY/WX    TMP DP  RH WIND       PRES   REMARKS
PUNTA GORDA    LGT RAIN  80  78  94 SW10      30.05S
FT MYERS       LGT RAIN  78  76  93 W10       30.04S
SOUTHWEST INTL CLOUDY    78  74  87 NW7       30.05R
NAPLES         CLOUDY    85  79  82 NW12      30.04R HX  98
MARCO ISLAND   MOSUNNY   84  75  74 W7        30.04S
MARATHON       MOSUNNY   89  77  67 MISG      30.04S HX 101
KEY WEST NAS   PTSUNNY   91  74  57 N6        30.04S HX 100
KEY WEST INTL  MOSUNNY   91  74  57 VRB6      30.05S HX 100

STATION/POSITION SKY/WX   TEMP    WIND        PRES    WAVE   SWELL
                          AIR SEA DIR/SP/G            HT/PER HT/PER
                          (F)     (DEG/KT/KT) (MB)    (FT/S) (FT/S)
VENICE                     80 85  230/  8/  9 1016.4F
NAPLES                        85              1018.0F
26.0N   85.6W              78 84  130/  2/  4 1018.5R   1/ 9   2/ 9
DRY TORTUGAS               85     300/  4/  5 1017.9R
NW FL BAY                  86     290/  4/  5 1017.3
SAND KEY                   85     350/  1/  2 1017.7R
SOMBRERO KEY               86     220/  3/  3 1018.1F
LONG KEY                   87 90  290/  2/  3 1018.0F
MOLASSES REEF              85 87  190/  4/  4 1017.2F

$$
FLZ067-068-071>074-168-172>174-291800-
SOUTHEAST FLORIDA

CITY           SKY/WX    TMP DP  RH WIND       PRES   REMARKS
W PALM BEACH   PTSUNNY   88  74  63 W12       30.02S HX  96
FT LAUDER-EXEC PTSUNNY   93  73  52 W13G20    30.01S HX 102
FT LAUDERDALE  CLOUDY    89  76  65 SW8       30.00F HX 100
POMPANO BEACH  PTSUNNY   92  72  51 W14       30.01S HX  99
PEMBROKE PINES CLOUDY    92  72  51 W12       30.02F HX  99
OPA LOCKA      CLOUDY    89  72  56 SW10      30.02S HX  96
MIAMI          CLOUDY    90  70  51 S7        30.02F HX  95
WEST KENDALL   CLOUDY    91  72  53 SW8       30.02F HX  98
HOMESTEAD      CLOUDY    90  70  50 S7        30.02S HX  95

STATION/POSITION SKY/WX   TEMP    WIND        PRES    WAVE   SWELL
                          AIR SEA DIR/SP/G            HT/PER HT/PER
                          (F)     (DEG/KT/KT) (MB)    (FT/S) (FT/S)
PORT EVERGLADES            88     280/  7/ 12 1016.2F
VIRGINIA KEY               85 86  220/  6/  7 1016.4F
LAKE WORTH                 86 85  250/  9/ 12 1015.9F


USA.gov is the U.S. government's official web portal to all federal, state and local government web resources and services.